sat.trackr.live / text

‹ back to catalog

STARLINK-35481

NORAD 66247 · 2025-245P

PAYLOAD ACTIVE UNKNOWN

§ Identity

Operator
Country
US
Launch date
2025-10-29
Launch site
AFETR
Launch vehicle
Mass (kg)
RCS (m²)

Purposes: comms

External: N2YO · Heavens-Above · Gunter

§ Orbital elements

Epoch: 2026-05-24T21:17:39.437664Z

Period
94.01 min
Inclination
53.1586°
Eccentricity
0.0001091
Mean motion
15.31710693 rev/d
Perigee alt
470.0 km
Apogee alt
471.5 km
Semi-major
6,848.8 km
B*
7.8228e-4
RAAN
289.8950°
Arg perigee
72.3443°
Mean anomaly
287.7677°
Rev number
3,292

§ Raw data

STARLINK-354811 66247U 25245P   26144.88726201  .00023996  00000+0  78228-3 0  99922 66247  53.1586 289.8950 0001091  72.3443 287.7677 15.31710693 32926

JSON: /api/v1/satellites/66247 · /tle

For live sub-satellite position, see the globe view (requires WebGL).

§ Visibility from observer

Set your observer location to see the next 7 days of passes ≥ 10°. The values pass through the URL so the page stays shareable.

No JS? Fill the form by hand. The geolocation button needs JavaScript.